WJA1161 KPHX-CYYC

Flight info

Callsign WJA1161
Flight time 2h 43m
Altitude 38000
Route QUAKY1 GCN DCT TCH J9 DBS DCT HIA DCT COUTS DCT EBGAL EBGAL7
Aircraft B38M/M-SDE1FGHILORVWXY/HB1

Departure

Time 2026-05-04 18:18
Airport Phoenix Sky Harbor International Airport (KPHX)

Arrival

Time 2026-05-04 21:01
Airport Calgary International Airport (CYYC)
Time Latitude Longitude Altitude Speed Heading
2026-05-04 17:20 33.43840 -111.99408 1118 ft 0 kts 202°
2026-05-04 18:04 33.43841 -111.99408 1127 ft 1 kts 202°
2026-05-04 18:05 33.43855 -111.99401 1121 ft 3 kts 200°
2026-05-04 18:05 33.43873 -111.99392 1123 ft 3 kts 207°
2026-05-04 18:05 33.43889 -111.99378 1120 ft 3 kts 236°
2026-05-04 18:05 33.43896 -111.99358 1119 ft 3 kts 262°
2026-05-04 18:06 33.43895 -111.99323 1127 ft 3 kts 293°
2026-05-04 18:06 33.43885 -111.99309 1122 ft 3 kts 344°
2026-05-04 18:06 33.43866 -111.99307 1117 ft 3 kts
2026-05-04 18:07 33.43857 -111.99307 1121 ft 0 kts 359°
2026-05-04 18:08 33.43858 -111.99307 1119 ft 1 kts 359°
2026-05-04 18:09 33.43869 -111.99225 1121 ft 17 kts 174°
2026-05-04 18:09 33.43532 -111.99226 1122 ft 27 kts 179°
2026-05-04 18:10 33.43392 -111.99245 1120 ft 19 kts 180°
2026-05-04 18:10 33.43278 -111.99246 1124 ft 12 kts 183°
2026-05-04 18:10 33.43230 -111.99250 1122 ft 0 kts 186°
2026-05-04 18:15 33.43177 -111.99295 1124 ft 10 kts 223°
2026-05-04 18:15 33.43118 -111.99350 1122 ft 9 kts 223°
2026-05-04 18:16 33.43104 -111.99402 1121 ft 1 kts 270°
2026-05-04 18:17 33.43104 -111.99489 1126 ft 36 kts 270°
2026-05-04 18:18 33.43103 -112.00092 1127 ft 107 kts 269°
2026-05-04 18:18 33.43111 -112.01196 1149 ft 157 kts 274°
2026-05-04 18:18 33.43131 -112.02531 1738 ft 167 kts 273°
2026-05-04 18:18 33.43142 -112.03986 2362 ft 176 kts 266°
2026-05-04 18:19 33.43190 -112.07020 3671 ft 196 kts 268°
2026-05-04 18:19 33.43229 -112.08722 4173 ft 218 kts 268°
2026-05-04 18:19 33.43277 -112.10649 4626 ft 244 kts 269°
2026-05-04 18:20 33.43334 -112.12684 5605 ft 242 kts 268°
2026-05-04 18:20 33.43393 -112.14714 6571 ft 247 kts 268°
2026-05-04 18:20 33.43657 -112.16761 7527 ft 253 kts 288°
2026-05-04 18:20 33.44687 -112.18501 8516 ft 264 kts 315°
2026-05-04 18:21 33.46338 -112.19552 9414 ft 279 kts 341°
2026-05-04 18:21 33.48313 -112.19687 10234 ft 290 kts 359°
2026-05-04 18:21 33.50343 -112.19626 11047 ft 292 kts 355°
2026-05-04 18:21 33.52377 -112.19598 11944 ft 293 kts 355°
2026-05-04 18:22 33.54469 -112.19223 12458 ft 317 kts
2026-05-04 18:22 33.56673 -112.18547 12850 ft 337 kts
2026-05-04 18:22 33.58985 -112.17969 13301 ft 347 kts 359°
2026-05-04 18:22 33.61412 -112.17950 14007 ft 350 kts 353°
2026-05-04 18:23 33.63859 -112.17949 14764 ft 354 kts 353°
2026-05-04 18:23 33.66347 -112.17931 15471 ft 360 kts 353°
2026-05-04 18:23 33.68863 -112.17905 16199 ft 363 kts 353°
2026-05-04 18:23 33.71407 -112.17874 16908 ft 368 kts 353°
2026-05-04 18:24 33.73979 -112.17840 17650 ft 370 kts 352°
2026-05-04 18:24 33.76567 -112.17805 18355 ft 374 kts 352°
2026-05-04 18:24 33.79177 -112.17768 18940 ft 377 kts 352°
2026-05-04 18:24 33.81829 -112.17731 19467 ft 383 kts 352°
2026-05-04 18:25 33.84515 -112.17693 19996 ft 388 kts 352°
2026-05-04 18:25 33.87234 -112.17654 20508 ft 393 kts 352°
2026-05-04 18:25 33.89985 -112.17615 21019 ft 398 kts 352°
2026-05-04 18:25 33.92775 -112.17575 21514 ft 403 kts 352°
2026-05-04 18:26 33.95601 -112.17535 21992 ft 409 kts 351°
2026-05-04 18:26 33.98462 -112.17494 22445 ft 415 kts 351°
2026-05-04 18:26 34.01365 -112.17453 22946 ft 419 kts 351°
2026-05-04 18:26 34.04303 -112.17411 23403 ft 425 kts 351°
2026-05-04 18:27 34.07275 -112.17368 23825 ft 429 kts 351°
2026-05-04 18:27 34.10237 -112.17326 24231 ft 432 kts 351°
2026-05-04 18:27 34.13252 -112.17283 24714 ft 434 kts 351°
2026-05-04 18:27 34.16276 -112.17239 25172 ft 436 kts 350°
2026-05-04 18:28 34.19319 -112.17195 25624 ft 438 kts 350°
2026-05-04 18:28 34.22375 -112.17151 26027 ft 441 kts 350°
2026-05-04 18:28 34.25459 -112.17107 26423 ft 443 kts 350°
2026-05-04 18:28 34.28542 -112.17062 26896 ft 445 kts 350°
2026-05-04 18:29 34.31653 -112.17018 27287 ft 447 kts 349°
2026-05-04 18:29 34.34774 -112.16973 27676 ft 450 kts 349°
2026-05-04 18:29 34.37919 -112.16927 28078 ft 453 kts 349°
2026-05-04 18:29 34.41085 -112.16882 28456 ft 456 kts 349°
2026-05-04 18:30 34.47424 -112.16790 29241 ft 461 kts 349°
2026-05-04 18:30 34.50654 -112.16743 29631 ft 464 kts 349°
2026-05-04 18:30 34.53899 -112.16697 29918 ft 469 kts 349°
2026-05-04 18:31 34.57169 -112.16649 30277 ft 470 kts 349°
2026-05-04 18:31 34.60448 -112.16602 30586 ft 472 kts 349°
2026-05-04 18:31 34.63739 -112.16554 30921 ft 474 kts 349°
2026-05-04 18:31 34.67042 -112.16506 31249 ft 475 kts 349°
2026-05-04 18:32 34.70352 -112.16458 31585 ft 477 kts 348°
2026-05-04 18:32 34.73682 -112.16410 31907 ft 479 kts 348°
2026-05-04 18:32 34.76974 -112.16362 32192 ft 480 kts 348°
2026-05-04 18:32 34.80327 -112.16313 32451 ft 484 kts 348°
2026-05-04 18:33 34.83687 -112.16264 32846 ft 482 kts 347°
2026-05-04 18:33 34.87050 -112.16215 33136 ft 484 kts 347°
2026-05-04 18:33 34.90418 -112.16166 33439 ft 485 kts 347°
2026-05-04 18:33 34.93809 -112.16117 33720 ft 487 kts 347°
2026-05-04 18:34 34.97201 -112.16067 34063 ft 487 kts 347°
2026-05-04 18:34 35.00589 -112.16017 34457 ft 486 kts 347°
2026-05-04 18:34 35.03970 -112.15967 34796 ft 485 kts 347°
2026-05-04 18:34 35.07351 -112.15918 35125 ft 485 kts 347°
2026-05-04 18:35 35.10726 -112.15868 35463 ft 484 kts 347°
2026-05-04 18:35 35.14093 -112.15819 35791 ft 484 kts 347°
2026-05-04 18:35 35.17414 -112.15770 36107 ft 483 kts 347°
2026-05-04 18:35 35.20779 -112.15721 36419 ft 483 kts 347°
2026-05-04 18:36 35.24140 -112.15672 36698 ft 482 kts 347°
2026-05-04 18:36 35.27503 -112.15622 36955 ft 482 kts 347°
2026-05-04 18:36 35.30846 -112.15573 37237 ft 481 kts 347°
2026-05-04 18:36 35.34187 -112.15523 37533 ft 479 kts 347°
2026-05-04 18:37 35.37514 -112.15474 37803 ft 478 kts 347°
2026-05-04 18:37 35.40848 -112.15426 38037 ft 477 kts 347°
2026-05-04 18:37 35.44167 -112.15376 38108 ft 477 kts 347°
2026-05-04 18:38 35.50776 -112.15279 38013 ft 472 kts 347°
2026-05-04 18:38 35.57300 -112.15182 37954 ft 471 kts 347°
2026-05-04 18:39 35.63857 -112.15085 38000 ft 470 kts 346°
2026-05-04 18:39 35.70391 -112.14988 38062 ft 468 kts 346°
2026-05-04 18:40 35.76909 -112.14891 38116 ft 467 kts 346°
2026-05-04 18:40 35.83396 -112.14794 38124 ft 466 kts 346°
2026-05-04 18:41 35.89883 -112.14697 38095 ft 466 kts 346°
2026-05-04 18:41 35.96373 -112.14573 38094 ft 467 kts 347°
2026-05-04 18:42 36.02847 -112.14363 38095 ft 467 kts 346°
2026-05-04 18:42 36.09336 -112.14192 38031 ft 464 kts 346°
2026-05-04 18:42 36.11476 -112.14111 38134 ft 463 kts 346°
2026-05-04 18:43 36.14704 -112.13998 38072 ft 467 kts 346°
2026-05-04 18:43 36.17961 -112.13890 37946 ft 467 kts 346°
2026-05-04 18:43 36.22274 -112.13751 37946 ft 469 kts 346°
2026-05-04 18:44 36.27720 -112.13577 37865 ft 470 kts 346°
2026-05-04 18:44 36.34265 -112.13370 37881 ft 471 kts 346°
2026-05-04 18:45 36.40816 -112.13162 37867 ft 470 kts 346°
2026-05-04 18:45 36.47365 -112.12954 37851 ft 470 kts 346°
2026-05-04 18:46 36.53913 -112.12746 37851 ft 471 kts 346°
2026-05-04 18:46 36.60467 -112.12537 37866 ft 471 kts 346°
2026-05-04 18:47 36.66978 -112.12330 37850 ft 470 kts 346°
2026-05-04 18:47 36.73512 -112.12121 37835 ft 469 kts 347°
2026-05-04 18:48 36.80047 -112.11913 37843 ft 471 kts 346°
2026-05-04 18:48 36.86613 -112.11702 37836 ft 471 kts 346°
2026-05-04 18:49 36.93186 -112.11491 37842 ft 473 kts 346°
2026-05-04 18:49 36.99739 -112.11280 37833 ft 474 kts 346°
2026-05-04 18:50 37.06347 -112.11067 37831 ft 476 kts 347°
2026-05-04 18:50 37.12985 -112.10852 37831 ft 478 kts 346°
2026-05-04 18:51 37.19645 -112.10637 37839 ft 479 kts 347°
2026-05-04 18:51 37.26343 -112.10421 37832 ft 482 kts 347°
2026-05-04 18:52 37.33078 -112.10203 37840 ft 485 kts 347°
2026-05-04 18:52 37.39836 -112.09982 37871 ft 485 kts 347°
2026-05-04 18:53 37.46543 -112.09763 37948 ft 486 kts 346°
2026-05-04 18:53 37.53301 -112.09543 37999 ft 487 kts 346°
2026-05-04 18:54 37.60080 -112.09322 38048 ft 487 kts 346°
2026-05-04 18:54 37.66875 -112.09099 38084 ft 490 kts 346°
2026-05-04 18:55 37.73671 -112.08876 38068 ft 487 kts 346°
2026-05-04 18:55 37.83876 -112.08540 38036 ft 489 kts 346°
2026-05-04 18:56 37.90678 -112.08316 37976 ft 488 kts 346°
2026-05-04 18:56 37.97418 -112.08094 37922 ft 487 kts 347°
2026-05-04 18:57 38.04219 -112.07869 37877 ft 489 kts 347°
2026-05-04 18:57 38.11001 -112.07643 37842 ft 487 kts 347°
2026-05-04 18:58 38.17763 -112.07419 37827 ft 485 kts 347°
2026-05-04 18:58 38.24520 -112.07194 37841 ft 485 kts 347°
2026-05-04 18:59 38.31206 -112.06971 37877 ft 485 kts 348°
2026-05-04 18:59 38.37949 -112.06745 37832 ft 483 kts 348°
2026-05-04 19:00 38.44680 -112.06521 37812 ft 483 kts 349°
2026-05-04 19:00 38.51407 -112.06295 37835 ft 483 kts 349°
2026-05-04 19:01 38.58118 -112.06070 37831 ft 482 kts 349°
2026-05-04 19:01 38.64815 -112.05844 37822 ft 480 kts 349°
2026-05-04 19:02 38.71498 -112.05619 37843 ft 480 kts 350°
2026-05-04 19:02 38.78126 -112.05395 37845 ft 479 kts 351°
2026-05-04 19:03 38.84784 -112.05169 37862 ft 478 kts 351°
2026-05-04 19:03 38.91422 -112.04945 37858 ft 476 kts 351°
2026-05-04 19:04 38.98070 -112.04719 37877 ft 478 kts 352°
2026-05-04 19:04 39.04704 -112.04494 37850 ft 475 kts 352°
2026-05-04 19:05 39.11314 -112.04268 37843 ft 475 kts 352°
2026-05-04 19:05 39.17915 -112.04042 37825 ft 474 kts 353°
2026-05-04 19:06 39.24504 -112.03817 37812 ft 473 kts 353°
2026-05-04 19:06 39.31035 -112.03593 37804 ft 472 kts 353°
2026-05-04 19:07 39.37605 -112.03368 37804 ft 472 kts 353°
2026-05-04 19:07 39.44175 -112.03142 37798 ft 472 kts 353°
2026-05-04 19:08 39.50751 -112.02915 37803 ft 471 kts 353°
2026-05-04 19:08 39.57265 -112.02691 37810 ft 471 kts 353°
2026-05-04 19:09 39.63827 -112.02464 37802 ft 471 kts 353°
2026-05-04 19:09 39.70383 -112.02236 37795 ft 471 kts 354°
2026-05-04 19:10 39.76951 -112.02009 37810 ft 471 kts 354°
2026-05-04 19:10 39.83519 -112.01780 37801 ft 471 kts 353°
2026-05-04 19:11 39.90071 -112.01552 37802 ft 471 kts 353°
2026-05-04 19:11 39.96577 -112.01325 37808 ft 471 kts 353°
2026-05-04 19:12 40.06415 -112.00980 37827 ft 470 kts 353°
2026-05-04 19:13 40.12979 -112.00750 37845 ft 471 kts 353°
2026-05-04 19:13 40.19535 -112.00519 37854 ft 471 kts 353°
2026-05-04 19:14 40.26054 -112.00289 37845 ft 471 kts 353°
2026-05-04 19:14 40.32618 -112.00057 37838 ft 471 kts 353°
2026-05-04 19:15 40.39179 -111.99825 37838 ft 471 kts 353°
2026-05-04 19:15 40.45742 -111.99593 37855 ft 471 kts 353°
2026-05-04 19:16 40.52305 -111.99360 37888 ft 471 kts 353°
2026-05-04 19:16 40.58810 -111.99129 37893 ft 470 kts 353°
2026-05-04 19:17 40.65358 -111.98895 37892 ft 470 kts 353°
2026-05-04 19:17 40.71893 -111.98662 37876 ft 469 kts 353°
2026-05-04 19:18 40.78422 -111.98428 37874 ft 469 kts 353°
2026-05-04 19:18 40.84939 -111.98250 37866 ft 463 kts 348°
2026-05-04 19:19 40.91312 -111.98773 37856 ft 462 kts 348°
2026-05-04 19:19 40.97729 -111.99216 37861 ft 462 kts 349°
2026-05-04 19:20 41.04144 -111.99643 37888 ft 461 kts 349°
2026-05-04 19:20 41.10547 -112.00070 37895 ft 460 kts 349°
2026-05-04 19:21 41.16945 -112.00497 37890 ft 460 kts 349°
2026-05-04 19:21 41.23324 -112.00923 37877 ft 459 kts 349°
2026-05-04 19:22 41.29708 -112.01351 37875 ft 458 kts 349°
2026-05-04 19:22 41.36038 -112.01776 37854 ft 458 kts 350°
2026-05-04 19:23 41.42400 -112.02204 37867 ft 457 kts 350°
2026-05-04 19:23 41.48751 -112.02632 37874 ft 457 kts 351°
2026-05-04 19:24 41.55098 -112.03061 37880 ft 456 kts 351°
2026-05-04 19:24 41.61444 -112.03490 37879 ft 456 kts 351°
2026-05-04 19:25 41.67786 -112.03920 37863 ft 455 kts 351°
2026-05-04 19:25 41.74125 -112.04350 37846 ft 456 kts 351°
2026-05-04 19:26 41.80457 -112.04783 37881 ft 456 kts 352°
2026-05-04 19:26 41.86784 -112.05213 37853 ft 455 kts 352°
2026-05-04 19:27 41.93070 -112.05643 37845 ft 455 kts 352°
2026-05-04 19:27 41.99385 -112.06077 37815 ft 454 kts 352°
2026-05-04 19:28 42.05701 -112.06510 37815 ft 454 kts 352°
2026-05-04 19:28 42.12015 -112.06943 37786 ft 454 kts 353°
2026-05-04 19:29 42.18317 -112.07379 37815 ft 453 kts 353°
2026-05-04 19:29 42.24624 -112.07813 37799 ft 453 kts 353°
2026-05-04 19:30 42.30912 -112.08248 37796 ft 452 kts 353°
2026-05-04 19:30 42.37156 -112.08681 37807 ft 451 kts 353°
2026-05-04 19:31 42.43421 -112.09116 37802 ft 450 kts 353°
2026-05-04 19:31 42.49670 -112.09551 37805 ft 450 kts 353°
2026-05-04 19:32 42.54865 -112.09913 37804 ft 449 kts 353°
2026-05-04 19:32 42.61105 -112.10349 37800 ft 449 kts 353°
2026-05-04 19:33 42.67359 -112.10786 37805 ft 448 kts 354°
2026-05-04 19:33 42.73549 -112.11220 37808 ft 447 kts 354°
2026-05-04 19:34 42.79759 -112.11656 37804 ft 446 kts 354°
2026-05-04 19:34 42.85962 -112.12094 37811 ft 446 kts 354°
2026-05-04 19:35 42.92159 -112.12530 37818 ft 445 kts 354°
2026-05-04 19:35 42.98337 -112.12968 37790 ft 443 kts 354°
2026-05-04 19:36 43.04495 -112.13403 37795 ft 442 kts 354°
2026-05-04 19:36 43.10629 -112.13839 37812 ft 441 kts 354°
2026-05-04 19:37 43.16714 -112.14271 37802 ft 439 kts 354°
2026-05-04 19:37 43.22807 -112.14705 37830 ft 438 kts 354°
2026-05-04 19:38 43.28890 -112.15140 37852 ft 437 kts 354°
2026-05-04 19:38 43.34958 -112.15574 37869 ft 436 kts 354°
2026-05-04 19:39 43.41013 -112.16008 37891 ft 435 kts 354°
2026-05-04 19:39 43.47066 -112.16443 37907 ft 435 kts 354°
2026-05-04 19:40 43.53074 -112.16875 37911 ft 435 kts 354°
2026-05-04 19:40 43.59121 -112.17311 37899 ft 434 kts 354°
2026-05-04 19:41 43.65162 -112.17747 37881 ft 434 kts 355°
2026-05-04 19:41 43.71194 -112.18184 37853 ft 433 kts 355°
2026-05-04 19:42 43.77176 -112.18618 37829 ft 432 kts 355°
2026-05-04 19:42 43.83182 -112.19055 37820 ft 431 kts 355°
2026-05-04 19:43 43.89170 -112.19490 37817 ft 430 kts 355°
2026-05-04 19:43 43.95150 -112.19927 37808 ft 429 kts 355°
2026-05-04 19:44 44.01104 -112.20362 37798 ft 428 kts 355°
2026-05-04 19:44 44.07050 -112.20798 37795 ft 427 kts 355°
2026-05-04 19:45 44.12990 -112.20727 37801 ft 427 kts 359°
2026-05-04 19:45 44.18886 -112.20581 37801 ft 426 kts 359°
2026-05-04 19:46 44.24806 -112.20451 37806 ft 425 kts 359°
2026-05-04 19:46 44.30710 -112.20325 37813 ft 424 kts 359°
2026-05-04 19:47 44.36598 -112.20201 37826 ft 423 kts 359°
2026-05-04 19:47 44.42486 -112.20076 37827 ft 422 kts 359°
2026-05-04 19:48 44.48358 -112.19952 37836 ft 421 kts 359°
2026-05-04 19:48 44.54217 -112.19828 37847 ft 421 kts 359°
2026-05-04 19:49 44.60063 -112.19704 37856 ft 420 kts 359°
2026-05-04 19:49 44.65869 -112.19580 37861 ft 419 kts 359°
2026-05-04 19:50 44.71694 -112.19456 37871 ft 418 kts 359°
2026-05-04 19:50 44.77510 -112.19332 37866 ft 417 kts 359°
2026-05-04 19:51 44.83304 -112.19208 37871 ft 416 kts 359°
2026-05-04 19:51 44.89051 -112.19085 37875 ft 414 kts 359°
2026-05-04 19:52 44.94819 -112.18961 37886 ft 413 kts 359°
2026-05-04 19:52 45.00550 -112.18837 37886 ft 411 kts 359°
2026-05-04 19:53 45.06266 -112.18713 37897 ft 410 kts 359°
2026-05-04 19:53 45.11933 -112.18591 37911 ft 409 kts 359°
2026-05-04 19:54 45.17622 -112.18468 37922 ft 408 kts 359°
2026-05-04 19:54 45.23298 -112.18345 37927 ft 408 kts 359°
2026-05-04 19:55 45.28969 -112.18221 37926 ft 407 kts 359°
2026-05-04 19:55 45.34630 -112.18098 37941 ft 406 kts 359°
2026-05-04 19:56 45.40278 -112.17974 37954 ft 405 kts 359°
2026-05-04 19:56 45.45915 -112.17851 37968 ft 405 kts 359°
2026-05-04 19:57 45.51520 -112.17728 37971 ft 404 kts 359°
2026-05-04 19:57 45.57145 -112.17604 37968 ft 404 kts 359°
2026-05-04 19:58 45.62758 -112.17481 37966 ft 402 kts 359°
2026-05-04 19:58 45.68362 -112.17357 37965 ft 402 kts 359°
2026-05-04 19:59 45.73945 -112.17234 37956 ft 401 kts 359°
2026-05-04 19:59 45.79517 -112.17110 37955 ft 400 kts 359°
2026-05-04 20:00 45.85084 -112.16988 37980 ft 399 kts 358°
2026-05-04 20:00 45.90589 -112.17202 37974 ft 398 kts 356°
2026-05-04 20:01 45.96113 -112.17411 37989 ft 396 kts 357°
2026-05-04 20:01 46.01632 -112.17612 38001 ft 396 kts 357°
2026-05-04 20:02 46.07148 -112.17815 37993 ft 395 kts 357°
2026-05-04 20:02 46.12643 -112.18017 37989 ft 395 kts 357°
2026-05-04 20:03 46.18083 -112.18217 38006 ft 394 kts 356°
2026-05-04 20:03 46.23559 -112.18419 37994 ft 393 kts 356°
2026-05-04 20:04 46.29032 -112.18621 38010 ft 393 kts 356°
2026-05-04 20:04 46.34495 -112.18823 38034 ft 392 kts 356°
2026-05-04 20:05 46.39951 -112.19025 38046 ft 391 kts 356°
2026-05-04 20:05 46.45390 -112.19227 38057 ft 391 kts 356°
2026-05-04 20:06 46.50792 -112.19428 38062 ft 390 kts 356°
2026-05-04 20:06 46.56219 -112.19631 38065 ft 390 kts 356°
2026-05-04 20:07 46.61640 -112.19834 38072 ft 389 kts 356°
2026-05-04 20:07 46.67063 -112.20036 38068 ft 388 kts 356°
2026-05-04 20:08 46.72471 -112.20240 38066 ft 388 kts 356°
2026-05-04 20:08 46.77863 -112.20442 38065 ft 387 kts 356°
2026-05-04 20:09 46.83218 -112.20643 38071 ft 387 kts 356°
2026-05-04 20:09 46.88592 -112.20847 38054 ft 386 kts 356°
2026-05-04 20:10 46.93962 -112.21050 38045 ft 386 kts 356°
2026-05-04 20:10 46.99326 -112.21253 38076 ft 386 kts 356°
2026-05-04 20:11 47.04698 -112.21457 38069 ft 385 kts 356°
2026-05-04 20:11 47.10057 -112.21660 38055 ft 385 kts 356°
2026-05-04 20:12 47.15402 -112.21864 38065 ft 384 kts 356°
2026-05-04 20:12 47.20743 -112.22069 38070 ft 384 kts 356°
2026-05-04 20:13 47.26080 -112.22273 38068 ft 383 kts 356°
2026-05-04 20:13 47.31415 -112.22478 38072 ft 383 kts 356°
2026-05-04 20:14 47.36710 -112.22681 38063 ft 383 kts 356°
2026-05-04 20:14 47.42034 -112.22886 38061 ft 382 kts 356°
2026-05-04 20:15 47.47357 -112.23092 38057 ft 382 kts 356°
2026-05-04 20:15 47.52680 -112.23298 38052 ft 382 kts 356°
2026-05-04 20:16 47.57995 -112.23504 38052 ft 382 kts 356°
2026-05-04 20:16 47.63302 -112.23710 38047 ft 381 kts 356°
2026-05-04 20:17 47.68607 -112.23916 38050 ft 381 kts 355°
2026-05-04 20:17 47.73872 -112.24121 38052 ft 381 kts 355°
2026-05-04 20:18 47.79165 -112.24328 38048 ft 380 kts 355°
2026-05-04 20:18 47.84454 -112.24535 38047 ft 380 kts 355°
2026-05-04 20:19 47.89743 -112.24742 38051 ft 380 kts 355°
2026-05-04 20:19 47.94134 -112.24915 38050 ft 379 kts 355°
2026-05-04 20:20 47.99405 -112.25122 38046 ft 379 kts 355°
2026-05-04 20:20 48.04686 -112.25331 38050 ft 379 kts 355°
2026-05-04 20:21 48.09954 -112.25539 38045 ft 378 kts 355°
2026-05-04 20:21 48.17850 -112.25852 38041 ft 378 kts 355°
2026-05-04 20:22 48.23083 -112.26060 38043 ft 378 kts 355°
2026-05-04 20:22 48.28340 -112.26269 38050 ft 378 kts 355°
2026-05-04 20:23 48.33592 -112.26479 38061 ft 377 kts 355°
2026-05-04 20:23 48.38844 -112.26689 38074 ft 377 kts 355°
2026-05-04 20:24 48.44092 -112.26899 38079 ft 377 kts 355°
2026-05-04 20:24 48.49337 -112.27110 38090 ft 377 kts 355°
2026-05-04 20:25 48.54554 -112.27319 38094 ft 377 kts 355°
2026-05-04 20:25 48.59804 -112.27531 38096 ft 377 kts 355°
2026-05-04 20:26 48.65054 -112.27743 38082 ft 377 kts 355°
2026-05-04 20:26 48.70299 -112.27955 38095 ft 377 kts 355°
2026-05-04 20:27 48.75552 -112.28168 38087 ft 377 kts 355°
2026-05-04 20:27 48.80802 -112.28382 38083 ft 377 kts 355°
2026-05-04 20:28 48.86016 -112.28594 38085 ft 377 kts 355°
2026-05-04 20:28 48.91271 -112.28808 38079 ft 377 kts 355°
2026-05-04 20:29 48.96518 -112.29023 38076 ft 377 kts 355°
2026-05-04 20:29 49.01573 -112.30411 38087 ft 371 kts 339°
2026-05-04 20:30 49.06425 -112.33190 38084 ft 373 kts 339°
2026-05-04 20:30 49.11250 -112.36093 38083 ft 373 kts 338°
2026-05-04 20:31 49.16063 -112.39048 38086 ft 372 kts 338°
2026-05-04 20:31 49.20874 -112.42020 38092 ft 372 kts 338°
2026-05-04 20:32 49.25652 -112.44978 38093 ft 372 kts 338°
2026-05-04 20:32 49.30450 -112.47955 38097 ft 372 kts 338°
2026-05-04 20:33 49.35247 -112.50938 38098 ft 372 kts 338°
2026-05-04 20:33 49.40050 -112.53931 38103 ft 372 kts 338°
2026-05-04 20:34 49.44837 -112.56920 38095 ft 371 kts 338°
2026-05-04 20:34 49.49597 -112.59898 38090 ft 371 kts 338°
2026-05-04 20:35 49.54379 -112.62897 38085 ft 371 kts 338°
2026-05-04 20:35 49.59163 -112.65904 38084 ft 371 kts 338°
2026-05-04 20:36 49.63951 -112.68918 38082 ft 371 kts 338°
2026-05-04 20:36 49.68726 -112.71932 38081 ft 371 kts 338°
2026-05-04 20:37 49.73498 -112.74950 38084 ft 370 kts 338°
2026-05-04 20:37 49.78239 -112.77955 37912 ft 368 kts 338°
2026-05-04 20:38 49.80597 -112.79452 37699 ft 365 kts 338°
2026-05-04 20:38 49.82932 -112.80935 37451 ft 361 kts 338°
2026-05-04 20:38 49.85249 -112.82410 37255 ft 358 kts 338°
2026-05-04 20:38 49.87548 -112.83873 37035 ft 356 kts 338°
2026-05-04 20:39 49.89835 -112.85331 36826 ft 353 kts 338°
2026-05-04 20:39 49.92096 -112.86773 36616 ft 350 kts 338°
2026-05-04 20:39 49.94342 -112.88209 36371 ft 345 kts 338°
2026-05-04 20:39 49.96549 -112.89619 35869 ft 342 kts 337°
2026-05-04 20:40 49.98745 -112.91025 35350 ft 340 kts 337°
2026-05-04 20:40 50.00925 -112.92422 34844 ft 338 kts 337°
2026-05-04 20:40 50.03090 -112.93810 34345 ft 335 kts 337°
2026-05-04 20:40 50.05236 -112.95187 33815 ft 333 kts 337°
2026-05-04 20:41 50.07370 -112.96558 33260 ft 330 kts 337°
2026-05-04 20:41 50.09484 -112.97918 32751 ft 327 kts 337°
2026-05-04 20:41 50.11571 -112.99262 32311 ft 323 kts 337°
2026-05-04 20:41 50.13640 -113.00595 31876 ft 319 kts 337°
2026-05-04 20:42 50.15685 -113.01914 31449 ft 316 kts 337°
2026-05-04 20:42 50.17683 -113.03203 31025 ft 313 kts 337°
2026-05-04 20:42 50.19705 -113.04510 30613 ft 309 kts 337°
2026-05-04 20:42 50.21661 -113.05774 30216 ft 306 kts 336°
2026-05-04 20:43 50.23622 -113.07044 29753 ft 303 kts 336°
2026-05-04 20:43 50.25562 -113.08301 29338 ft 300 kts 336°
2026-05-04 20:43 50.27478 -113.09543 28948 ft 296 kts 336°
2026-05-04 20:43 50.29364 -113.10767 28566 ft 291 kts 336°
2026-05-04 20:44 50.31223 -113.11975 28199 ft 288 kts 336°
2026-05-04 20:44 50.33067 -113.13173 27837 ft 284 kts 336°
2026-05-04 20:44 50.34855 -113.14337 27490 ft 280 kts 336°
2026-05-04 20:44 50.36649 -113.15505 27141 ft 277 kts 336°
2026-05-04 20:45 50.38421 -113.16660 26791 ft 274 kts 336°
2026-05-04 20:45 50.40191 -113.17815 26444 ft 278 kts 336°
2026-05-04 20:45 50.41992 -113.18990 26092 ft 282 kts 336°
2026-05-04 20:45 50.43811 -113.20179 25745 ft 284 kts 336°
2026-05-04 20:46 50.45635 -113.21371 25403 ft 283 kts 336°
2026-05-04 20:46 50.47448 -113.22557 25058 ft 282 kts 336°
2026-05-04 20:46 50.49254 -113.23740 24720 ft 281 kts 336°
2026-05-04 20:46 50.51052 -113.24918 24378 ft 279 kts 336°
2026-05-04 20:47 50.52846 -113.26096 24039 ft 278 kts 336°
2026-05-04 20:47 50.54611 -113.27254 23707 ft 277 kts 336°
2026-05-04 20:47 50.56384 -113.28419 23311 ft 275 kts 336°
2026-05-04 20:47 50.58147 -113.29578 22939 ft 273 kts 336°
2026-05-04 20:48 50.59885 -113.30721 22603 ft 269 kts 336°
2026-05-04 20:48 50.61600 -113.31850 22276 ft 265 kts 336°
2026-05-04 20:48 50.63290 -113.32963 21942 ft 262 kts 336°
2026-05-04 20:48 50.64960 -113.34064 21712 ft 257 kts 336°
2026-05-04 20:49 50.66577 -113.35131 21582 ft 248 kts 336°
2026-05-04 20:49 50.68141 -113.36164 21414 ft 240 kts 336°
2026-05-04 20:49 50.69665 -113.37314 20726 ft 249 kts 326°
2026-05-04 20:49 50.71032 -113.39100 20029 ft 260 kts 322°
2026-05-04 20:50 50.72287 -113.41204 19530 ft 268 kts 307°
2026-05-04 20:50 50.73023 -113.43968 19027 ft 283 kts 290°
2026-05-04 20:50 50.73279 -113.47114 18513 ft 293 kts 283°
2026-05-04 20:50 50.73446 -113.50304 17938 ft 298 kts 283°
2026-05-04 20:51 50.73628 -113.53585 17338 ft 302 kts 283°
2026-05-04 20:51 50.73830 -113.56905 16750 ft 306 kts 283°
2026-05-04 20:51 50.74045 -113.60240 16179 ft 301 kts 283°
2026-05-04 20:51 50.74260 -113.63499 15625 ft 295 kts 283°
2026-05-04 20:52 50.74478 -113.66696 15076 ft 290 kts 283°
2026-05-04 20:52 50.74703 -113.69853 14523 ft 287 kts 283°
2026-05-04 20:52 50.74932 -113.72968 13968 ft 284 kts 283°
2026-05-04 20:52 50.75171 -113.76042 13345 ft 281 kts 283°
2026-05-04 20:53 50.75417 -113.79092 12734 ft 279 kts 283°
2026-05-04 20:53 50.75671 -113.82088 12117 ft 278 kts 283°
2026-05-04 20:53 50.75940 -113.85109 11515 ft 277 kts 283°
2026-05-04 20:53 50.76225 -113.88112 10923 ft 275 kts 285°
2026-05-04 20:54 50.76858 -113.90907 10328 ft 267 kts 304°
2026-05-04 20:54 50.78058 -113.93060 9822 ft 259 kts 324°
2026-05-04 20:54 50.79579 -113.94510 9356 ft 251 kts 333°
2026-05-04 20:54 50.81090 -113.95766 8834 ft 241 kts 333°
2026-05-04 20:55 50.82540 -113.96982 8441 ft 229 kts 333°
2026-05-04 20:55 50.83900 -113.98122 8201 ft 215 kts 333°
2026-05-04 20:55 50.85274 -113.98948 7929 ft 211 kts 350°
2026-05-04 20:55 50.86742 -113.99100 7720 ft 211 kts 358°
2026-05-04 20:56 50.88213 -113.99097 7408 ft 211 kts 359°
2026-05-04 20:56 50.89681 -113.99091 7182 ft 210 kts 359°
2026-05-04 20:56 50.91136 -113.99086 7005 ft 208 kts 359°
2026-05-04 20:56 50.92583 -113.99084 7018 ft 209 kts 359°
2026-05-04 20:57 50.94036 -113.99079 7032 ft 209 kts 359°
2026-05-04 20:57 50.95492 -113.99076 6992 ft 208 kts 359°
2026-05-04 20:57 50.96884 -113.99071 6778 ft 197 kts 359°
2026-05-04 20:57 50.98212 -113.99068 6430 ft 186 kts 359°
2026-05-04 20:58 50.99483 -113.99063 6082 ft 176 kts 358°
2026-05-04 20:58 51.00654 -113.99067 5828 ft 163 kts 359°
2026-05-04 20:58 51.01776 -113.99060 5533 ft 158 kts 359°
2026-05-04 20:58 51.02803 -113.99050 5351 ft 139 kts 360°
2026-05-04 20:59 51.03755 -113.99051 5037 ft 135 kts 359°
2026-05-04 20:59 51.04716 -113.99046 4864 ft 145 kts 360°
2026-05-04 20:59 51.05766 -113.99084 4885 ft 156 kts 360°
2026-05-04 20:59 51.06832 -113.99074 4677 ft 147 kts
2026-05-04 21:00 51.07799 -113.99074 4464 ft 130 kts 359°
2026-05-04 21:00 51.08701 -113.99055 4110 ft 133 kts 360°
2026-05-04 21:00 51.09629 -113.99025 3899 ft 133 kts 357°
2026-05-04 21:00 51.10532 -113.99021 3720 ft 126 kts 356°
2026-05-04 21:01 51.11357 -113.99036 3572 ft 113 kts 356°
2026-05-04 21:01 51.11997 -113.99040 3559 ft 64 kts
2026-05-04 21:01 51.12320 -113.99080 3559 ft 30 kts 343°
2026-05-04 21:01 51.12505 -113.99232 3562 ft 30 kts 330°
2026-05-04 21:02 51.12690 -113.99314 3563 ft 25 kts
2026-05-04 21:02 51.12867 -113.99304 3561 ft 26 kts 358°
2026-05-04 21:02 51.13036 -113.99305 3560 ft 20 kts
2026-05-04 21:02 51.13154 -113.99351 3562 ft 17 kts 298°
2026-05-04 21:03 51.13160 -113.99541 3562 ft 18 kts 270°
2026-05-04 21:03 51.13159 -113.99750 3558 ft 19 kts 271°
2026-05-04 21:03 51.13149 -113.99896 3562 ft 10 kts 239°
2026-05-04 21:03 51.13094 -113.99929 3562 ft 7 kts 177°
2026-05-04 21:04 51.13068 -113.99928 3562 ft 0 kts 178°